Weather in Tukan

Russia / Republic of Bashkortostan     53°50′15″N   57°27′02″E
temp.,
°C
wind,
m/s
gust,
m/s
humid.,
%
clouds,
%
prec.,
mm/h
press.,
hPa
HPBL,
m
28 february, sun
sun2823:00−14ese229797 0.6 100543
02:00−14ese229799 0.1 100451
05:00−14ese229798 0.4 100374
08:00−13ese2296100 0.8 1002101
11:00−9ese2293100 1.1 1001226
14:00−5ese1290100 0.4 1001378
17:00−4ese1292100 0.6 1002290
20:00−8ese119799 0.3 100521
1 march, mon
mon123:00−10ese119791 0.5 100821
02:00−12se119695 0.1 101021
05:00−12s129793 0.3 101230
08:00−13sw119798 0.3 101420
11:00−9w129296 0.3 1015306
14:00−7wnw2290100 0.3 1015447
17:00−9nw2392100 0.4 1016396
20:00−14wnw129795 0.1 101732
2 march, tue
tue223:00−18wnw119987 0.1 101820
02:00−20w1110077 0.0 101820
05:00−21w1110086 0.1 101820
08:00−22sw1210096 0.0 101720
11:00−15ssw249489 0.1 1016225
14:00−11sw368662 0.0 1013518
17:00−11ssw499280 0.0 1011473
20:00−14ssw51294100 0.1 1010428
3 march, wed
wed323:00−16ssw41394100 0.3 1009435
02:00−13s41394100 0.3 1006488
05:00−9ssw51494100 1.2 1003676
08:00−7ssw41293100 0.7 1001724
11:00−4ssw5993100 1.1 1000805
14:00−3sw4893100 0.6 999807
17:00−3wsw4893100 1.3 998787
20:00−6w3897100 0.5 999444
4 march, thu
thu423:00−10wnw2597100 0.8 1002175
02:00−12w1297100 0.1 100323
05:00−13w1298100 0.2 100420
08:00−13w1298100 0.1 100622
11:00−9wnw3690100 0.2 1007732
14:00−7wnw5986100 0.3 10081208
17:00−9w5890100 0.5 1010913
20:00−12wsw31097100 0.2 1012417